contact:dominique.lefevre@mio.osupytheas.fr, maurice.libes@osupytheas.fr, didier.mallarino@osupytheas.fr
Project:EMSO http://www.emso-fr.org/EMSO-France
Depth: 2436.0 m
Title:EMSO Ligure Ouest : Data MII capteur CSTAR
DateTime,Latitude,Longitude,Instrument_Serial,Reference_Counts,Signal_Counts,Corrected_Signal_raw_counts,Calculated_Beam_c_inverse_meters,Internal_thermistor_counts
DateTime,Latitude,Longitude,Instrument_Serial,Reference_Counts,Signal_Counts,Corrected_Signal_raw_counts,Calculated_Beam_c_inverse_meters,Internal_thermistor_counts
2022-08-23T00:01:26,42.805,6.029,CST-1368DR,4604,5208,12045,01.039,551
2022-08-23T00:04:28,42.805,6.029,CST-1368DR,4604,5207,12043,01.039,551
2022-08-23T00:07:29,42.805,6.029,CST-1368DR,4604,5202,12031,01.043,551
2022-08-23T00:10:31,42.805,6.029,CST-1368DR,4604,5205,12036,01.042,551
2022-08-23T00:13:33,42.805,6.029,CST-1368DR,4604,5207,12043,01.039,551
2022-08-23T00:16:34,42.805,6.029,CST-1368DR,4604,5208,12044,01.039,551
2022-08-23T00:19:36,42.805,6.029,CST-1368DR,4604,5208,12044,01.039,551
2022-08-23T00:22:37,42.805,6.029,CST-1368DR,4604,5208,12044,01.039,551
2022-08-23T00:25:39,42.805,6.029,CST-1368DR,4604,5208,12045,01.039,551
2022-08-23T00:28:40,42.805,6.029,CST-1368DR,4604,5208,12045,01.039,551
2022-08-23T00:31:42,42.805,6.029,CST-1368DR,4604,5209,12047,01.038,551
2022-08-23T00:34:44,42.805,6.029,CST-1368DR,4604,5208,12045,01.039,551
2022-08-23T00:37:45,42.805,6.029,CST-1368DR,4604,5209,12046,01.038,551
2022-08-23T00:40:47,42.805,6.029,CST-1368DR,4604,5209,12046,01.038,551
2022-08-23T00:43:48,42.805,6.029,CST-1368DR,4604,5209,12046,01.038,551
2022-08-23T00:46:50,42.805,6.029,CST-1368DR,4604,5208,12045,01.039,551
2022-08-23T00:49:51,42.805,6.029,CST-1368DR,4604,5209,12047,01.038,551
2022-08-23T00:52:53,42.805,6.029,CST-1368DR,4604,5209,12047,01.038,551
2022-08-23T00:55:55,42.805,6.029,CST-1368DR,4604,5209,12046,01.038,551
2022-08-23T00:58:56,42.805,6.029,CST-1368DR,4604,5200,12025,01.045,551
2022-08-23T01:01:58,42.805,6.029,CST-1368DR,4604,5196,12017,01.048,551
2022-08-23T01:04:59,42.805,6.029,CST-1368DR,4604,5199,12024,01.046,551
2022-08-23T01:08:01,42.805,6.029,CST-1368DR,4604,5199,12024,01.046,551
2022-08-23T01:11:03,42.805,6.029,CST-1368DR,4604,5200,12025,01.045,551
2022-08-23T01:14:04,42.805,6.029,CST-1368DR,4604,5199,12024,01.046,551
2022-08-23T01:17:06,42.805,6.029,CST-1368DR,4604,5200,12025,01.045,551
2022-08-23T01:20:07,42.805,6.029,CST-1368DR,4604,5200,12025,01.045,551
2022-08-23T01:23:09,42.805,6.029,CST-1368DR,4604,5201,12027,01.045,551
2022-08-23T01:26:10,42.805,6.029,CST-1368DR,4604,5199,12024,01.046,551
2022-08-23T01:29:12,42.805,6.029,CST-1368DR,4604,5198,12021,01.047,551
2022-08-23T01:32:14,42.805,6.029,CST-1368DR,4604,5199,12024,01.046,551
2022-08-23T01:35:15,42.805,6.029,CST-1368DR,4604,5199,12022,01.046,551
2022-08-23T01:38:17,42.805,6.029,CST-1368DR,4604,5200,12025,01.045,551
2022-08-23T01:41:18,42.805,6.029,CST-1368DR,4604,5199,12023,01.046,551
2022-08-23T01:44:20,42.805,6.029,CST-1368DR,4604,5199,12022,01.046,551
2022-08-23T01:47:21,42.805,6.029,CST-1368DR,4604,5199,12024,01.046,551
2022-08-23T01:50:23,42.805,6.029,CST-1368DR,4604,5199,12023,01.046,551
2022-08-23T01:53:25,42.805,6.029,CST-1368DR,4604,5199,12024,01.046,551
2022-08-23T01:56:26,42.805,6.029,CST-1368DR,4604,5199,12024,01.046,551
2022-08-23T01:59:28,42.805,6.029,CST-1368DR,4604,5199,12022,01.046,551
2022-08-23T02:02:29,42.805,6.029,CST-1368DR,4604,5198,12020,01.047,551
2022-08-23T02:05:31,42.805,6.029,CST-1368DR,4604,5198,12020,01.047,551
2022-08-23T02:08:33,42.805,6.029,CST-1368DR,4604,5198,12022,01.046,551
2022-08-23T02:11:34,42.805,6.029,CST-1368DR,4604,5199,12024,01.046,551
2022-08-23T02:14:36,42.805,6.029,CST-1368DR,4604,5198,12021,01.047,551
2022-08-23T02:17:37,42.805,6.029,CST-1368DR,4604,5199,12022,01.046,551
2022-08-23T02:20:39,42.805,6.029,CST-1368DR,4604,5199,12022,01.046,551
2022-08-23T02:23:40,42.805,6.029,CST-1368DR,4604,5199,12024,01.046,551
2022-08-23T02:26:42,42.805,6.029,CST-1368DR,4604,5197,12020,01.047,551
2022-08-23T02:29:44,42.805,6.029,CST-1368DR,4604,5198,12021,01.047,551
2022-08-23T02:32:45,42.805,6.029,CST-1368DR,4604,5198,12022,01.046,551
2022-08-23T02:35:47,42.805,6.029,CST-1368DR,4604,5200,12025,01.045,551
2022-08-23T02:38:48,42.805,6.029,CST-1368DR,4604,5199,12024,01.046,551
2022-08-23T02:41:50,42.805,6.029,CST-1368DR,4604,5199,12022,01.046,551
2022-08-23T02:44:51,42.805,6.029,CST-1368DR,4604,5196,12016,01.048,551
2022-08-23T02:47:53,42.805,6.029,CST-1368DR,4604,5198,12022,01.046,551
2022-08-23T02:50:55,42.805,6.029,CST-1368DR,4604,5197,12019,01.047,551
2022-08-23T02:53:56,42.805,6.029,CST-1368DR,4604,5198,12022,01.046,551
2022-08-23T02:56:58,42.805,6.029,CST-1368DR,4604,5197,12019,01.047,551
2022-08-23T02:59:59,42.805,6.029,CST-1368DR,4604,5199,12022,01.046,551
2022-08-23T03:03:01,42.805,6.029,CST-1368DR,4604,5199,12024,01.046,551
2022-08-23T03:06:03,42.805,6.029,CST-1368DR,4604,5199,12022,01.046,551
2022-08-23T03:09:04,42.805,6.029,CST-1368DR,4604,5199,12024,01.046,551
2022-08-23T03:12:06,42.805,6.029,CST-1368DR,4604,5198,12022,01.046,551
2022-08-23T03:15:07,42.805,6.029,CST-1368DR,4604,5196,12017,01.048,551
2022-08-23T03:18:09,42.805,6.029,CST-1368DR,4604,5199,12023,01.046,551
2022-08-23T03:21:10,42.805,6.029,CST-1368DR,4604,5198,12021,01.047,551
2022-08-23T03:24:12,42.805,6.029,CST-1368DR,4604,5197,12018,01.048,551
2022-08-23T03:27:14,42.805,6.029,CST-1368DR,4604,5195,12015,01.049,551
2022-08-23T03:30:15,42.805,6.029,CST-1368DR,4604,5198,12021,01.047,551
2022-08-23T03:33:17,42.805,6.029,CST-1368DR,4604,5197,12019,01.047,551
2022-08-23T03:36:18,42.805,6.029,CST-1368DR,4604,5199,12023,01.046,551
2022-08-23T03:39:20,42.805,6.029,CST-1368DR,4604,5199,12024,01.046,551
2022-08-23T03:42:21,42.805,6.029,CST-1368DR,4604,5199,12022,01.046,551
2022-08-23T03:45:23,42.805,6.029,CST-1368DR,4604,5198,12020,01.047,551
2022-08-23T03:48:25,42.805,6.029,CST-1368DR,4604,5199,12024,01.046,551
2022-08-23T03:51:26,42.805,6.029,CST-1368DR,4604,5198,12022,01.046,551
2022-08-23T03:54:28,42.805,6.029,CST-1368DR,4604,5198,12022,01.046,551
2022-08-23T03:57:29,42.805,6.029,CST-1368DR,4604,5198,12021,01.047,551
2022-08-23T04:00:31,42.805,6.029,CST-1368DR,4604,5198,12022,01.046,551
2022-08-23T04:03:33,42.805,6.029,CST-1368DR,4604,5197,12020,01.047,551
2022-08-23T04:06:34,42.805,6.029,CST-1368DR,4604,5198,12020,01.047,551
2022-08-23T04:09:36,42.805,6.029,CST-1368DR,4604,5197,12019,01.047,551
2022-08-23T04:12:37,42.805,6.029,CST-1368DR,4604,5197,12020,01.047,551
2022-08-23T04:15:39,42.805,6.029,CST-1368DR,4604,5197,12018,01.048,551
2022-08-23T04:18:40,42.805,6.029,CST-1368DR,4604,5196,12016,01.048,551
2022-08-23T04:21:42,42.805,6.029,CST-1368DR,4604,5197,12020,01.047,551
2022-08-23T04:24:44,42.805,6.029,CST-1368DR,4604,5195,12014,01.049,551
2022-08-23T04:27:45,42.805,6.029,CST-1368DR,4604,5196,12017,01.048,551
2022-08-23T04:30:47,42.805,6.029,CST-1368DR,4604,5197,12019,01.047,551
2022-08-23T04:33:48,42.805,6.029,CST-1368DR,4604,5194,12011,01.050,551
2022-08-23T04:36:50,42.805,6.029,CST-1368DR,4604,5198,12021,01.047,551
2022-08-23T04:39:51,42.805,6.029,CST-1368DR,4604,5197,12018,01.048,551
2022-08-23T04:42:53,42.805,6.029,CST-1368DR,4604,5198,12020,01.047,551
2022-08-23T04:45:55,42.805,6.029,CST-1368DR,4604,5199,12022,01.046,551
2022-08-23T04:48:56,42.805,6.029,CST-1368DR,4604,5196,12017,01.048,551
2022-08-23T04:51:58,42.805,6.029,CST-1368DR,4604,5197,12018,01.048,551
2022-08-23T04:54:59,42.805,6.029,CST-1368DR,4604,5198,12021,01.047,551
2022-08-23T04:58:01,42.805,6.029,CST-1368DR,4604,5198,12021,01.047,551
2022-08-23T05:01:03,42.805,6.029,CST-1368DR,4604,5199,12023,01.046,551
2022-08-23T05:04:04,42.805,6.029,CST-1368DR,4604,5199,12023,01.046,551
2022-08-23T05:07:06,42.805,6.029,CST-1368DR,4604,5200,12025,01.045,551
2022-08-23T05:10:07,42.805,6.029,CST-1368DR,4604,5197,12020,01.047,551
2022-08-23T05:13:09,42.805,6.029,CST-1368DR,4604,5198,12020,01.047,551
2022-08-23T05:16:10,42.805,6.029,CST-1368DR,4604,5198,12021,01.047,551
2022-08-23T05:19:12,42.805,6.029,CST-1368DR,4604,5198,12021,01.047,551
2022-08-23T05:22:14,42.805,6.029,CST-1368DR,4604,5197,12018,01.048,551
2022-08-23T05:25:15,42.805,6.029,CST-1368DR,4604,5200,12025,01.045,551
2022-08-23T05:28:17,42.805,6.029,CST-1368DR,4604,5198,12021,01.047,551
2022-08-23T05:31:18,42.805,6.029,CST-1368DR,4604,5200,12025,01.045,551
2022-08-23T05:34:20,42.805,6.029,CST-1368DR,4604,5200,12025,01.045,551
2022-08-23T05:37:21,42.805,6.029,CST-1368DR,4604,5199,12022,01.046,551
2022-08-23T05:40:23,42.805,6.029,CST-1368DR,4604,5200,12026,01.045,551
2022-08-23T05:43:25,42.805,6.029,CST-1368DR,4604,5199,12024,01.046,551
2022-08-23T05:46:26,42.805,6.029,CST-1368DR,4604,5200,12025,01.045,551
2022-08-23T05:49:28,42.805,6.029,CST-1368DR,4604,5200,12026,01.045,551
2022-08-23T05:52:29,42.805,6.029,CST-1368DR,4604,5199,12024,01.046,551
2022-08-23T05:55:31,42.805,6.029,CST-1368DR,4604,5200,12026,01.045,551
2022-08-23T05:58:33,42.805,6.029,CST-1368DR,4604,5200,12025,01.045,551
2022-08-23T06:01:34,42.805,6.029,CST-1368DR,4604,5201,12027,01.045,551
2022-08-23T06:04:36,42.805,6.029,CST-1368DR,4604,5198,12021,01.047,551
2022-08-23T06:07:37,42.805,6.029,CST-1368DR,4604,5199,12024,01.046,551
2022-08-23T06:10:39,42.805,6.029,CST-1368DR,4604,5200,12025,01.045,551
2022-08-23T06:13:40,42.805,6.029,CST-1368DR,4604,5200,12026,01.045,551
2022-08-23T06:16:42,42.805,6.029,CST-1368DR,4604,5198,12022,01.046,551
2022-08-23T06:19:44,42.805,6.029,CST-1368DR,4604,5199,12024,01.046,551
2022-08-23T06:22:45,42.805,6.029,CST-1368DR,4604,5200,12026,01.045,551
2022-08-23T06:25:47,42.805,6.029,CST-1368DR,4604,5199,12024,01.046,551
2022-08-23T06:28:48,42.805,6.029,CST-1368DR,4604,5196,12016,01.048,551
2022-08-23T06:31:50,42.805,6.029,CST-1368DR,4604,5199,12023,01.046,551
2022-08-23T06:34:52,42.805,6.029,CST-1368DR,4604,5199,12023,01.046,551
2022-08-23T06:37:53,42.805,6.029,CST-1368DR,4604,5200,12025,01.045,551
2022-08-23T06:40:55,42.805,6.029,CST-1368DR,4604,5199,12024,01.046,551
2022-08-23T06:43:56,42.805,6.029,CST-1368DR,4604,5199,12022,01.046,551
2022-08-23T06:46:58,42.805,6.029,CST-1368DR,4604,5200,12026,01.045,551
2022-08-23T06:49:59,42.805,6.029,CST-1368DR,4604,5200,12026,01.045,551
2022-08-23T06:53:01,42.805,6.029,CST-1368DR,4604,5200,12026,01.045,551
2022-08-23T06:56:03,42.805,6.029,CST-1368DR,4604,5201,12027,01.045,551
2022-08-23T06:59:04,42.805,6.029,CST-1368DR,4604,5202,12029,01.044,551
2022-08-23T07:02:06,42.805,6.029,CST-1368DR,4604,5199,12023,01.046,551
2022-08-23T07:05:07,42.805,6.029,CST-1368DR,4604,5199,12024,01.046,551
2022-08-23T07:08:09,42.805,6.029,CST-1368DR,4604,5201,12028,01.044,551
2022-08-23T07:11:10,42.805,6.029,CST-1368DR,4604,5201,12029,01.044,551
2022-08-23T07:14:12,42.805,6.029,CST-1368DR,4604,5201,12028,01.044,551
2022-08-23T07:17:14,42.805,6.029,CST-1368DR,4604,5200,12026,01.045,551
2022-08-23T07:20:15,42.805,6.029,CST-1368DR,4604,5201,12027,01.045,551
2022-08-23T07:23:17,42.805,6.029,CST-1368DR,4604,5199,12024,01.046,551
2022-08-23T07:26:18,42.805,6.029,CST-1368DR,4604,5201,12028,01.044,551
2022-08-23T07:29:20,42.805,6.029,CST-1368DR,4604,5200,12025,01.045,551
2022-08-23T07:32:22,42.805,6.029,CST-1368DR,4604,5200,12025,01.045,551
2022-08-23T07:35:23,42.805,6.029,CST-1368DR,4604,5199,12024,01.046,551
2022-08-23T07:38:25,42.805,6.029,CST-1368DR,4604,5198,12022,01.046,551
2022-08-23T07:41:26,42.805,6.029,CST-1368DR,4604,5201,12028,01.044,551
2022-08-23T07:44:28,42.805,6.029,CST-1368DR,4604,5201,12028,01.044,551
2022-08-23T07:47:29,42.805,6.029,CST-1368DR,4604,5198,12022,01.046,551
2022-08-23T07:50:31,42.805,6.029,CST-1368DR,4604,5199,12024,01.046,551
2022-08-23T07:53:33,42.805,6.029,CST-1368DR,4604,5201,12027,01.045,551
2022-08-23T07:56:34,42.805,6.029,CST-1368DR,4604,5201,12029,01.044,551
2022-08-23T07:59:36,42.805,6.029,CST-1368DR,4604,5201,12027,01.045,551
2022-08-23T08:02:37,42.805,6.029,CST-1368DR,4604,5199,12023,01.046,551
2022-08-23T08:05:39,42.805,6.029,CST-1368DR,4604,5199,12022,01.046,551
2022-08-23T08:08:40,42.805,6.029,CST-1368DR,4604,5196,12016,01.048,551
2022-08-23T08:11:42,42.805,6.029,CST-1368DR,4604,5198,12021,01.047,551
2022-08-23T08:14:44,42.805,6.029,CST-1368DR,4604,5199,12022,01.046,551
2022-08-23T08:17:45,42.805,6.029,CST-1368DR,4604,5199,12022,01.046,551
2022-08-23T08:20:47,42.805,6.029,CST-1368DR,4604,5200,12025,01.045,551
2022-08-23T08:23:48,42.805,6.029,CST-1368DR,4604,5201,12027,01.045,551
2022-08-23T08:26:50,42.805,6.029,CST-1368DR,4604,5200,12025,01.045,551
2022-08-23T08:29:52,42.805,6.029,CST-1368DR,4604,5198,12022,01.046,551
2022-08-23T08:32:53,42.805,6.029,CST-1368DR,4604,5193,12009,01.051,551
2022-08-23T08:35:55,42.805,6.029,CST-1368DR,4604,5200,12025,01.045,551
2022-08-23T08:38:56,42.805,6.029,CST-1368DR,4604,5198,12021,01.047,551
2022-08-23T08:41:58,42.805,6.029,CST-1368DR,4604,5201,12027,01.045,551
2022-08-23T08:44:59,42.805,6.029,CST-1368DR,4604,5198,12022,01.046,551
2022-08-23T08:48:01,42.805,6.029,CST-1368DR,4604,5198,12021,01.047,551
2022-08-23T08:51:03,42.805,6.029,CST-1368DR,4604,5199,12024,01.046,551
2022-08-23T08:54:04,42.805,6.029,CST-1368DR,4604,5200,12025,01.045,551
2022-08-23T08:57:06,42.805,6.029,CST-1368DR,4604,5201,12027,01.045,551
2022-08-23T09:00:07,42.805,6.029,CST-1368DR,4604,5199,12024,01.046,551
2022-08-23T09:03:09,42.805,6.029,CST-1368DR,4604,5199,12023,01.046,551
2022-08-23T09:06:10,42.805,6.029,CST-1368DR,4604,5197,12020,01.047,551
2022-08-23T09:09:12,42.805,6.029,CST-1368DR,4604,5200,12025,01.045,551
2022-08-23T09:12:14,42.805,6.029,CST-1368DR,4604,5200,12025,01.045,551
2022-08-23T09:15:15,42.805,6.029,CST-1368DR,4604,5198,12022,01.046,551
2022-08-23T09:18:17,42.805,6.029,CST-1368DR,4604,5199,12023,01.046,551
2022-08-23T09:21:18,42.805,6.029,CST-1368DR,4604,5197,12020,01.047,551
2022-08-23T09:24:20,42.805,6.029,CST-1368DR,4604,5200,12025,01.045,551
2022-08-23T09:27:22,42.805,6.029,CST-1368DR,4604,5199,12023,01.046,551
2022-08-23T09:30:23,42.805,6.029,CST-1368DR,4604,5198,12021,01.047,551
2022-08-23T09:33:25,42.805,6.029,CST-1368DR,4604,5199,12024,01.046,551
2022-08-23T09:36:26,42.805,6.029,CST-1368DR,4604,5199,12024,01.046,551
2022-08-23T09:39:28,42.805,6.029,CST-1368DR,4604,5201,12028,01.044,551
2022-08-23T09:42:29,42.805,6.029,CST-1368DR,4604,5200,12026,01.045,551
2022-08-23T09:45:31,42.805,6.029,CST-1368DR,4604,5200,12026,01.045,551
2022-08-23T09:48:33,42.805,6.029,CST-1368DR,4603,5200,12027,01.045,551
2022-08-23T09:51:34,42.805,6.029,CST-1368DR,4603,5201,12030,01.044,551
2022-08-23T09:54:36,42.805,6.029,CST-1368DR,4604,5199,12024,01.046,551
2022-08-23T09:57:37,42.805,6.029,CST-1368DR,4603,5200,12028,01.044,551
2022-08-23T10:00:39,42.805,6.029,CST-1368DR,4603,5201,12030,01.044,551
2022-08-23T10:03:41,42.805,6.029,CST-1368DR,4603,5200,12027,01.045,551
2022-08-23T10:06:42,42.805,6.029,CST-1368DR,4603,5200,12028,01.044,551
2022-08-23T10:09:44,42.805,6.029,CST-1368DR,4603,5200,12028,01.044,551
2022-08-23T10:12:45,42.805,6.029,CST-1368DR,4603,5199,12027,01.045,551
2022-08-23T10:15:47,42.805,6.029,CST-1368DR,4603,5201,12030,01.044,551
2022-08-23T10:18:48,42.805,6.029,CST-1368DR,4603,5201,12030,01.044,551
2022-08-23T10:21:50,42.805,6.029,CST-1368DR,4603,5201,12030,01.044,551
2022-08-23T10:24:52,42.805,6.029,CST-1368DR,4603,5201,12030,01.044,551
2022-08-23T10:27:53,42.805,6.029,CST-1368DR,4603,5200,12028,01.044,551
2022-08-23T10:30:55,42.805,6.029,CST-1368DR,4603,5199,12027,01.045,551
2022-08-23T10:33:56,42.805,6.029,CST-1368DR,4603,5200,12027,01.045,551
2022-08-23T10:36:58,42.805,6.029,CST-1368DR,4603,5199,12026,01.045,551
2022-08-23T10:39:59,42.805,6.029,CST-1368DR,4603,5200,12028,01.044,551
2022-08-23T10:43:01,42.805,6.029,CST-1368DR,4603,5195,12016,01.048,551
2022-08-23T10:46:03,42.805,6.029,CST-1368DR,4603,5198,12023,01.046,551
2022-08-23T10:49:04,42.805,6.029,CST-1368DR,4603,5199,12025,01.045,551
2022-08-23T10:52:06,42.805,6.029,CST-1368DR,4603,5198,12024,01.046,551
2022-08-23T10:55:07,42.805,6.029,CST-1368DR,4603,5199,12026,01.045,551
2022-08-23T10:58:09,42.805,6.029,CST-1368DR,4603,5198,12023,01.046,550
2022-08-23T11:01:11,42.805,6.029,CST-1368DR,4603,5201,12030,01.044,551
2022-08-23T11:04:12,42.805,6.029,CST-1368DR,4603,5199,12026,01.045,551
2022-08-23T11:07:14,42.805,6.029,CST-1368DR,4603,5199,12026,01.045,551
2022-08-23T11:10:15,42.805,6.029,CST-1368DR,4603,5196,12018,01.048,551
2022-08-23T11:13:17,42.805,6.029,CST-1368DR,4603,5199,12026,01.045,550
2022-08-23T11:16:18,42.805,6.029,CST-1368DR,4603,5198,12023,01.046,551
2022-08-23T11:19:20,42.805,6.029,CST-1368DR,4603,5199,12027,01.045,551
2022-08-23T11:22:22,42.805,6.029,CST-1368DR,4603,5201,12030,01.044,551
2022-08-23T11:25:23,42.805,6.029,CST-1368DR,4603,5200,12027,01.045,551
2022-08-23T11:28:25,42.805,6.029,CST-1368DR,4603,5201,12030,01.044,551
2022-08-23T11:31:26,42.805,6.029,CST-1368DR,4603,5199,12027,01.045,551
2022-08-23T11:34:28,42.805,6.029,CST-1368DR,4603,5201,12030,01.044,551
2022-08-23T11:37:29,42.805,6.029,CST-1368DR,4603,5199,12026,01.045,551
2022-08-23T11:40:31,42.805,6.029,CST-1368DR,4603,5200,12028,01.044,551
2022-08-23T11:43:33,42.805,6.029,CST-1368DR,4603,5198,12024,01.046,551
2022-08-23T11:46:34,42.805,6.029,CST-1368DR,4603,5200,12027,01.045,551
2022-08-23T11:49:36,42.805,6.029,CST-1368DR,4603,5201,12030,01.044,551
2022-08-23T11:52:37,42.805,6.029,CST-1368DR,4603,5200,12028,01.044,551
2022-08-23T11:55:39,42.805,6.029,CST-1368DR,4603,5201,12030,01.044,551
2022-08-23T11:58:41,42.805,6.029,CST-1368DR,4603,5200,12027,01.045,551
2022-08-23T12:01:42,42.805,6.029,CST-1368DR,4603,5201,12030,01.044,551
2022-08-23T12:04:44,42.805,6.029,CST-1368DR,4603,5201,12031,01.043,551
2022-08-23T12:07:45,42.805,6.029,CST-1368DR,4603,5199,12026,01.045,551
2022-08-23T12:10:47,42.805,6.029,CST-1368DR,4603,5198,12024,01.046,551
2022-08-23T12:13:48,42.805,6.029,CST-1368DR,4603,5198,12023,01.046,551
2022-08-23T12:16:50,42.805,6.029,CST-1368DR,4603,5201,12031,01.043,551
2022-08-23T12:19:52,42.805,6.029,CST-1368DR,4603,5201,12030,01.044,551
2022-08-23T12:22:53,42.805,6.029,CST-1368DR,4603,5199,12026,01.045,551
2022-08-23T12:25:55,42.805,6.029,CST-1368DR,4603,5200,12028,01.044,551
2022-08-23T12:28:56,42.805,6.029,CST-1368DR,4603,5199,12027,01.045,551
2022-08-23T12:31:58,42.805,6.029,CST-1368DR,4603,5200,12028,01.044,551
2022-08-23T12:34:59,42.805,6.029,CST-1368DR,4603,5199,12026,01.045,551
2022-08-23T12:38:01,42.805,6.029,CST-1368DR,4603,5199,12027,01.045,551
2022-08-23T12:41:03,42.805,6.029,CST-1368DR,4603,5196,12019,01.047,550
2022-08-23T12:44:04,42.805,6.029,CST-1368DR,4603,5199,12027,01.045,551
2022-08-23T12:47:06,42.805,6.029,CST-1368DR,4603,5200,12027,01.045,551
2022-08-23T12:50:07,42.805,6.029,CST-1368DR,4603,5199,12025,01.045,551
2022-08-23T12:53:09,42.805,6.029,CST-1368DR,4603,5198,12024,01.046,551
2022-08-23T12:56:11,42.805,6.029,CST-1368DR,4603,5199,12026,01.045,551
2022-08-23T12:59:12,42.805,6.029,CST-1368DR,4603,5199,12027,01.045,551
2022-08-23T13:02:14,42.805,6.029,CST-1368DR,4603,5200,12028,01.044,551
2022-08-23T13:05:15,42.805,6.029,CST-1368DR,4603,5200,12028,01.044,551
2022-08-23T13:08:17,42.805,6.029,CST-1368DR,4603,5198,12023,01.046,551
2022-08-23T13:11:18,42.805,6.029,CST-1368DR,4603,5200,12027,01.045,551
2022-08-23T13:14:20,42.805,6.029,CST-1368DR,4603,5200,12028,01.044,551
2022-08-23T13:17:22,42.805,6.029,CST-1368DR,4603,5199,12026,01.045,551
2022-08-23T13:20:23,42.805,6.029,CST-1368DR,4603,5199,12026,01.045,551
2022-08-23T13:23:25,42.805,6.029,CST-1368DR,4603,5198,12024,01.046,551
2022-08-23T13:26:26,42.805,6.029,CST-1368DR,4603,5199,12026,01.045,551
2022-08-23T13:29:28,42.805,6.029,CST-1368DR,4603,5197,12020,01.047,551
2022-08-23T13:32:29,42.805,6.029,CST-1368DR,4603,5198,12024,01.046,551
2022-08-23T13:35:31,42.805,6.029,CST-1368DR,4603,5197,12022,01.046,551
2022-08-23T13:38:33,42.805,6.029,CST-1368DR,4603,5199,12027,01.045,551
2022-08-23T13:41:34,42.805,6.029,CST-1368DR,4603,5198,12024,01.046,551
2022-08-23T13:44:36,42.805,6.029,CST-1368DR,4603,5197,12022,01.046,551
2022-08-23T13:47:37,42.805,6.029,CST-1368DR,4603,5199,12026,01.045,551
2022-08-23T13:50:39,42.805,6.029,CST-1368DR,4603,5197,12022,01.046,551
2022-08-23T13:53:41,42.805,6.029,CST-1368DR,4603,5197,12022,01.046,551
2022-08-23T13:56:42,42.805,6.029,CST-1368DR,4603,5197,12022,01.046,551
2022-08-23T13:59:44,42.805,6.029,CST-1368DR,4603,5199,12025,01.045,551
2022-08-23T14:02:45,42.805,6.029,CST-1368DR,4603,5198,12024,01.046,551
2022-08-23T14:05:47,42.805,6.029,CST-1368DR,4603,5199,12026,01.045,551
2022-08-23T14:08:48,42.805,6.029,CST-1368DR,4603,5197,12020,01.047,551
2022-08-23T14:11:50,42.805,6.029,CST-1368DR,4603,5198,12024,01.046,551
2022-08-23T14:14:52,42.805,6.029,CST-1368DR,4603,5198,12024,01.046,551
2022-08-23T14:17:53,42.805,6.029,CST-1368DR,4603,5199,12026,01.045,551
2022-08-23T14:20:55,42.805,6.029,CST-1368DR,4603,5198,12024,01.046,551
2022-08-23T14:23:56,42.805,6.029,CST-1368DR,4603,5198,12023,01.046,551
2022-08-23T14:26:58,42.805,6.029,CST-1368DR,4603,5199,12026,01.045,551
2022-08-23T14:30:00,42.805,6.029,CST-1368DR,4603,5198,12024,01.046,551
2022-08-23T14:33:01,42.805,6.029,CST-1368DR,4603,5198,12024,01.046,551
2022-08-23T14:36:03,42.805,6.029,CST-1368DR,4603,5197,12020,01.047,551
2022-08-23T14:39:04,42.805,6.029,CST-1368DR,4603,5199,12025,01.045,551
2022-08-23T14:42:06,42.805,6.029,CST-1368DR,4603,5196,12018,01.048,551
2022-08-23T14:45:07,42.805,6.029,CST-1368DR,4603,5194,12015,01.049,551
2022-08-23T14:48:09,42.805,6.029,CST-1368DR,4603,5197,12022,01.046,551
2022-08-23T14:51:11,42.805,6.029,CST-1368DR,4603,5198,12023,01.046,551
2022-08-23T14:54:12,42.805,6.029,CST-1368DR,4603,5198,12023,01.046,551
2022-08-23T14:57:14,42.805,6.029,CST-1368DR,4603,5199,12025,01.045,551
2022-08-23T15:00:15,42.805,6.029,CST-1368DR,4603,5197,12022,01.046,551
2022-08-23T15:03:17,42.805,6.029,CST-1368DR,4603,5198,12024,01.046,551
2022-08-23T15:06:18,42.805,6.029,CST-1368DR,4603,5198,12023,01.046,551
2022-08-23T15:09:20,42.805,6.029,CST-1368DR,4603,5198,12024,01.046,551
2022-08-23T15:12:22,42.805,6.029,CST-1368DR,4603,5196,12020,01.047,551
2022-08-23T15:15:23,42.805,6.029,CST-1368DR,4603,5198,12024,01.046,551
2022-08-23T15:18:25,42.805,6.029,CST-1368DR,4603,5197,12022,01.046,551
2022-08-23T15:21:26,42.805,6.029,CST-1368DR,4603,5198,12024,01.046,551
2022-08-23T15:24:28,42.805,6.029,CST-1368DR,4603,5198,12023,01.046,551
2022-08-23T15:27:30,42.805,6.029,CST-1368DR,4603,5198,12023,01.046,551
2022-08-23T15:30:31,42.805,6.029,CST-1368DR,4603,5198,12024,01.046,551
2022-08-23T15:33:33,42.805,6.029,CST-1368DR,4603,5195,12017,01.048,551
2022-08-23T15:36:34,42.805,6.029,CST-1368DR,4603,5196,12019,01.047,551
2022-08-23T15:39:36,42.805,6.029,CST-1368DR,4603,5197,12020,01.047,551
2022-08-23T15:42:37,42.805,6.029,CST-1368DR,4603,5197,12022,01.046,551
2022-08-23T15:45:39,42.805,6.029,CST-1368DR,4603,5195,12017,01.048,551
2022-08-23T15:48:41,42.805,6.029,CST-1368DR,4603,5195,12017,01.048,551
2022-08-23T15:51:42,42.805,6.029,CST-1368DR,4603,5197,12020,01.047,551
2022-08-23T15:54:44,42.805,6.029,CST-1368DR,4603,5197,12022,01.046,551
2022-08-23T15:57:45,42.805,6.029,CST-1368DR,4603,5196,12019,01.047,551
2022-08-23T16:00:47,42.805,6.029,CST-1368DR,4603,5197,12020,01.047,551
2022-08-23T16:03:48,42.805,6.029,CST-1368DR,4603,5197,12020,01.047,550
2022-08-23T16:06:50,42.805,6.029,CST-1368DR,4603,5197,12020,01.047,551
2022-08-23T16:09:52,42.805,6.029,CST-1368DR,4603,5197,12022,01.046,551
2022-08-23T16:12:53,42.805,6.029,CST-1368DR,4603,5196,12019,01.047,551
2022-08-23T16:15:55,42.805,6.029,CST-1368DR,4603,5196,12020,01.047,551
2022-08-23T16:18:56,42.805,6.029,CST-1368DR,4603,5195,12016,01.048,551
2022-08-23T16:21:58,42.805,6.029,CST-1368DR,4603,5197,12020,01.047,551
2022-08-23T16:25:00,42.805,6.029,CST-1368DR,4603,5197,12020,01.047,551
2022-08-23T16:28:01,42.805,6.029,CST-1368DR,4603,5195,12016,01.048,551
2022-08-23T16:31:03,42.805,6.029,CST-1368DR,4603,5197,12022,01.046,551
2022-08-23T16:34:04,42.805,6.029,CST-1368DR,4603,5197,12020,01.047,551
2022-08-23T16:37:06,42.805,6.029,CST-1368DR,4603,5195,12016,01.048,551